Location: Poughquag
(41.6090°N, 73.6820°W)
Time: 02:20:17
(UTC-04:00)

S-56A Canister/Altair - Pass Details

Date: 30 May 2020
Orbit: 633 x 2499 km, 38.9° (Epoch: 06 July)

Event Time Altitude Azimuth Distance (km) Brightness Sun altitude
Rises 11:52:10 0° 282° (WNW) 4,829 11.4 66.6°
Reaches altitude 10° 11:55:22 10° 274° (W) 4,088 11.2 66.9°
Maximum altitude 12:05:17 36° 214° (SW) 3,106 11.3 67.9°
Drops below altitude 10° 12:17:44 10° 156° (SSE) 5,117 12.2 69.0°
Sets 12:22:21 0° 148° (SSE) 6,165 12.4 69.3°
